Address 0x0000000000000000000000000000000000000000

Overview

Balance:
0.007509737 BTT

Token:
My Name Tag:
Not Available

Blocks Validated:
1 blocks
Txn Hash Method
Block
From
To
Value [Txn Fee]
0x1e3262a3bc1e403b26cb67f047256c43e1dd4d3a79eb6bc7f7089e5c2337d9b9Transfer(pending)2022-11-28 12:18:171 day 11 hrs ago0xc89ddfceb4bf043d4b4bed32548b8be9117b7549 IN 0x00000000000000000000000000000000000000003 wei(Pending)
0xe58c813e340c7f647a7e16a64c1415b3ad31cb97ef480661df92deae72a011ccTransfer(pending)2022-11-26 15:15:373 days 8 hrs ago0xc89ddfceb4bf043d4b4bed32548b8be9117b7549 IN 0x00000000000000000000000000000000000000003 wei(Pending)
0x018924b8fff4177bb75e6cfc58066c185aa65be01855901dab76cd9d66812ad1Transfer(pending)2022-11-25 6:50:104 days 17 hrs ago0xc89ddfceb4bf043d4b4bed32548b8be9117b7549 IN 0x00000000000000000000000000000000000000009.917529027641081856 BTT(Pending)
0x176280acc1a2aa39304c081f003d0aa119eb1fe5a8bf6a9cdf57b0ddb076a40bTransfer(pending)2022-11-25 6:50:104 days 17 hrs ago0xc89ddfceb4bf043d4b4bed32548b8be9117b7549 IN 0x00000000000000000000000000000000000000009.917529027641081856 BTT(Pending)
0xf4b15b3ba4692334028becbd1c0a89991b6bafb007faf45e6fdecec2b4dee49cTransfer151258882022-11-29 9:57:1814 hrs 12 mins ago0x0000000000000000000000000000000000000000SELF0x00000000000000000000000000000000000000000 BTT0
0x3d84831cb50d6334e4be60237bad0fc4ee2587127dd99113b6e1bfebbae860d2Transfer149534082022-11-25 7:08:184 days 17 hrs ago0x0000000000000000000000000000000000000000SELF0x00000000000000000000000000000000000000000 BTT0
0xb555c8953ed789c9224caf5f0d14087b84f1b5df8c9510a295dfa179952c8e6dTransfer148344322022-11-22 3:38:317 days 20 hrs ago0x0000000000000000000000000000000000000000SELF0x00000000000000000000000000000000000000000 BTT0
0x88f604c76ba176df0a41ae87962123e2b5cce2c9507551d01c2e9dc578a1146cTransfer146361602022-11-17 10:02:5512 days 14 hrs ago0x0000000000000000000000000000000000000000SELF0x00000000000000000000000000000000000000000 BTT0
0xda0ab0422bda01841df60e521f724d08003d20ee9470aac93da6f0a2153c6225Transfer146356482022-11-17 9:45:1912 days 14 hrs ago0x0000000000000000000000000000000000000000SELF0x00000000000000000000000000000000000000000 BTT0
0x4c1451c93664529e69ca21a9f4713b18787105852f078bc4b7f16801c3d7028bTransfer145555202022-11-15 11:50:5514 days 12 hrs ago0x0000000000000000000000000000000000000000SELF0x00000000000000000000000000000000000000000 BTT0
0xdfd65723e4b83d868c45e3a4b396fd43ff74a2480019aa9c09bd7827e74c249aTransfer145546242022-11-15 11:20:0714 days 12 hrs ago0x0000000000000000000000000000000000000000SELF0x00000000000000000000000000000000000000000 BTT0
0x8ecc8a45b3e641146702627f63fbe0343364d96cf072cf1cb21895784b4aef34Transfer145543682022-11-15 11:11:1914 days 12 hrs ago0x0000000000000000000000000000000000000000SELF0x00000000000000000000000000000000000000000 BTT0
0xc51634ad6af9515252f6e170effee76b243a99cee0dda0ba2c23d047fff76eceTransfer145536642022-11-15 10:47:0714 days 13 hrs ago0x0000000000000000000000000000000000000000SELF0x00000000000000000000000000000000000000000 BTT0
0x3b09fb9fc28236389bbe065a483c17a39855cd12d1f53b48df1b250d1994bba6Transfer145533442022-11-15 10:36:0714 days 13 hrs ago0x0000000000000000000000000000000000000000SELF0x00000000000000000000000000000000000000000 BTT0
0xff79138a33d5924c6522da9fe0733604bce9f0ff6723bfbe3b0118a111dc0cc9Transfer145531522022-11-15 10:29:3114 days 13 hrs ago0x0000000000000000000000000000000000000000SELF0x00000000000000000000000000000000000000000 BTT0
0x5bf7470cec60b5d1b4a5eeed736425e9a79879e42aea09bcf7beaad0c98e7f0eTransfer145527682022-11-15 10:16:1914 days 13 hrs ago0x0000000000000000000000000000000000000000SELF0x00000000000000000000000000000000000000000 BTT0
0xc74cf21f58938f34aef202ef5ba8a73b92f28062b17109647336d25d9728a66aTransfer145525762022-11-15 10:09:4314 days 13 hrs ago0x0000000000000000000000000000000000000000SELF0x00000000000000000000000000000000000000000 BTT0
0x347cff51dd737117186ca2a6f26d4fc44194f74fd79029bfeb7ee3a5fdec66e1Transfer145518082022-11-15 9:43:1914 days 14 hrs ago0x0000000000000000000000000000000000000000SELF0x00000000000000000000000000000000000000000 BTT0
0xf9a60f6657a1d67e91d5a383717e5d1972f9568896d644fb7aeb48be56c04f61Transfer145516162022-11-15 9:36:4314 days 14 hrs ago0x0000000000000000000000000000000000000000SELF0x00000000000000000000000000000000000000000 BTT0
0xf315c84adfa43f709c3c37f3cbaaf2b462930cf683497dff45a758e3307e3316Transfer143912962022-11-11 13:45:4318 days 10 hrs ago0x0000000000000000000000000000000000000000SELF0x00000000000000000000000000000000000000000 BTT0
0x4e2670363164398d75ae53c78e8ba257ba93b9d7ce0906dc8170ce751928d64fTransfer143870722022-11-11 11:20:3118 days 12 hrs ago0x0000000000000000000000000000000000000000SELF0x00000000000000000000000000000000000000000 BTT0
0x817b641522579755df24c8051a26d2935d2ca43d9c7362db7ccdf69e43a7a49cTransfer143838722022-11-11 9:30:3118 days 14 hrs ago0x0000000000000000000000000000000000000000SELF0x00000000000000000000000000000000000000000 BTT0
0x5077cc4ec79975790f7961e691c02f45af6d5780793841db8fe897a4ea34f1f4Transfer143806722022-11-11 7:40:3118 days 16 hrs ago0x0000000000000000000000000000000000000000SELF0x00000000000000000000000000000000000000000 BTT0
0x1201c62227fb6779f392b07c345404c48e3bd8b260a2822a90b5190ae001255cTransfer143728002022-11-11 3:08:5418 days 21 hrs ago0x0000000000000000000000000000000000000000SELF0x00000000000000000000000000000000000000000 BTT0
0xe8c60ad69fef287ddb63f7234b8aedb10f2cc2a5b3769d931b013c23f96e4b34Approve143650382022-11-10 22:42:0219 days 1 hr ago0x59bb5f8b697c642fe8cac6195c6803f4a4809089 IN 0x00000000000000000000000000000000000000000 BTT6.5832
[ Download CSV Export 
Latest 9 internal transactions
Parent Txn Hash Block From To Value
0x146e665f19ef21a0f89a9ff7a76595943ac00e1aaa5f4f69e98c991a48b40749107355792022-08-16 7:09:35105 days 16 hrs ago 0x8e7abfdc74c864c3be25cdb8963740d375908f2c0x00000000000000000000000000000000000000000 BTT
0xdfab809c404b4d26c3f54de05723fb0b481ce451c72cf63e57568707b191da1b107340722022-08-16 6:17:45105 days 17 hrs ago 0x8e7abfdc74c864c3be25cdb8963740d375908f2c0x00000000000000000000000000000000000000000 BTT
0xebe72c1eb3ecef45648891551d93694405485565170065ecfb58166ef24e906783878132022-06-16 14:58:09166 days 9 hrs ago 0xa9b819762be899bf3c89ab96f748f23abb419eaf0x00000000000000000000000000000000000000000 BTT
0xdf570bfc65f938c0f4a598fe430baa9e011c7e2c6d927b57e500d712f1e792cf83878102022-06-16 14:58:03166 days 9 hrs ago 0xa9b819762be899bf3c89ab96f748f23abb419eaf0x00000000000000000000000000000000000000000 BTT
0x10ec863a42299f10360a73893890898e96e67e39c48deab27ddbac8b95ed6a3e83875342022-06-16 14:48:35166 days 9 hrs ago 0xa9b819762be899bf3c89ab96f748f23abb419eaf0x00000000000000000000000000000000000000000 BTT
0x3c8adfe19141b9e4ae567f80bbba30962392fb4660eda5fa6c24d798bbf7195f83875082022-06-16 14:47:17166 days 9 hrs ago 0xa9b819762be899bf3c89ab96f748f23abb419eaf0x00000000000000000000000000000000000000000 BTT
0xe055b084302430c0832c6d0864dad6d13ddfd5a55b45ef435bd060c0d6baf43d83874892022-06-16 14:46:01166 days 9 hrs ago 0xa9b819762be899bf3c89ab96f748f23abb419eaf0x00000000000000000000000000000000000000000 BTT
0x56678bc64e3acaf85bcdaacc6a5bed391d40b08ce39df228bda3d3f3e614068083871412022-06-16 14:32:57166 days 9 hrs ago 0xbc67907c580ee68a6bcca66a3652491a6ba867a00x00000000000000000000000000000000000000000 BTT
0x85ccbf70b5106944cfc6708abc365ef43f8b021c4f4c8744d50ddba2ce979ad983871392022-06-16 14:32:53166 days 9 hrs ago 0xbc67907c580ee68a6bcca66a3652491a6ba867a00x00000000000000000000000000000000000000000 BTT
[ Download CSV Export 
Loading

Contract Name:
0

Compiler Version
0

Optimization Enabled:
0

Other Settings:
-NA-

 Latest 1 block Validated

Block Transaction Gas Used Reward
02019-05-20 10:31:451289 days 13 hrs ago00 (0.00%)
0 BTT
Age Block Fee Address BC Fee Address Voting Power Jailed Incoming
Block Uncle Number Difficulty Gas Used Reward
Loading